Weather History for KUNO - January, 2012

Change the Weather History Date:

Wednesday, January 11, 2012

  Actual Average Record
Temperature  
Mean Temperature 49 °F 34 °F  
Max Temperature 59 °F 44 °F 67 °F (2005)
Min Temperature 39 °F 23 °F -15 °F (1977)
Degree Days  
Heating Degree Days 16 31  
Month to date heating degree days 240 341  
Since 1 July heating degree days 1840 2086  
Cooling Degree Days 0 0  
Month to date cooling degree days 0 0  
Year to date cooling degree days 0 0  
Moisture  
Dew Point 35 °F    
Average Humidity 67    
Maximum Humidity 100    
Minimum Humidity 33    
Precipitation  
Precipitation 0.00 in 0.07 in 0.60 in (1991)
Month to date precipitation 0.63 0.71  
Year to date precipitation 0.63 0.71  
Sea Level Pressure  
Sea Level Pressure 29.64 in    
Wind  
Wind Speed 7 mph (NW)    
Max Wind Speed 18 mph    
Max Gust Speed 26 mph    
Visibility 8 miles    
Events      
T = Trace of Precipitation, MM = Missing Value Source: NWS Daily Summary

Daily Weather History Graph

Daily Weather History Graph

Search for Another Location

Airport or City:

Trip Planner

Search our weather history database for the weather conditions in past years. The results will help you decide how hot, cold, wet, or windy it might be!

Date:

Astronomy

Jan. 11, 2012 Rise Set
Actual Time 7:20 AM CST 5:10 PM CST
Civil Twilight 6:52 AM CST 5:38 PM CST
Nautical Twilight 6:20 AM CST 6:11 PM CST
Astronomical Twilight 5:48 AM CST 6:42 PM CST
Moon 8:04 PM CST (1/11) 8:37 AM CST (1/11)
Length of Visible Light 10h 46m
Length of Day
9h 49m
Waning Gibbous, 93% of the Moon is Illuminated
Jan 11
Waning Gibbous
Jan 16
Last Quarter
Jan 23
New
Jan 30
First Quarter
Feb 7
Full

Hourly Weather History & Observations

Time (CST) Temp. Windchill Dew Point Humidity Pressure Visibility Wind Dir Wind Speed Gust Speed Precip Events Conditions
12:53 AM 39.9 °F 35.8 °F 37.9 °F 93% 29.70 in 8.0 mi North 5.8 mph - N/A   Overcast
1:53 AM 39.9 °F 36.7 °F 37.9 °F 93% 29.68 in 8.0 mi North 4.6 mph - N/A   Overcast
2:53 AM 39.9 °F 37.8 °F 39.0 °F 97% 29.66 in 6.0 mi NNW 3.5 mph - N/A   Overcast
3:27 AM 39.2 °F 34.2 °F 37.4 °F 93% 29.64 in 5.0 mi NNW 6.9 mph - N/A   Overcast
3:53 AM 39.9 °F 37.8 °F 37.9 °F 93% 29.63 in 4.0 mi North 3.5 mph - N/A   Overcast
4:10 AM 39.2 °F 34.2 °F 37.4 °F 93% 29.62 in 4.0 mi North 6.9 mph - N/A   Overcast
4:45 AM 39.2 °F 35.0 °F 37.4 °F 93% 29.60 in 6.0 mi NNW 5.8 mph - N/A   Overcast
4:53 AM 39.9 °F 36.7 °F 37.9 °F 93% 29.61 in 6.0 mi NNW 4.6 mph - N/A   Overcast
5:44 AM 39.2 °F 35.0 °F 39.2 °F 100% 29.60 in 6.0 mi NNW 5.8 mph - N/A   Overcast
5:53 AM 39.9 °F 35.8 °F 39.0 °F 97% 29.61 in 6.0 mi North 5.8 mph - N/A   Overcast
6:53 AM 39.9 °F 35.8 °F 39.0 °F 97% 29.62 in 7.0 mi NW 5.8 mph - N/A   Mostly Cloudy
7:01 AM 39.2 °F 35.9 °F 39.2 °F 100% 29.62 in 6.0 mi WNW 4.6 mph - N/A   Overcast
7:53 AM 41.0 °F 35.8 °F 37.9 °F 89% 29.64 in 10.0 mi NW 8.1 mph - N/A   Overcast
8:41 AM 42.8 °F 41.1 °F 37.4 °F 81% 29.64 in 10.0 mi NW 3.5 mph - N/A   Overcast
9:53 AM 43.0 °F 38.2 °F 37.0 °F 80% 29.66 in 10.0 mi WNW 8.1 mph - N/A   Overcast
10:53 AM 46.0 °F 40.6 °F 36.0 °F 68% 29.65 in 10.0 mi WNW 11.5 mph - N/A   Overcast
11:53 AM 52.0 °F - 34.0 °F 50% 29.62 in 10.0 mi NW 6.9 mph - N/A   Mostly Cloudy
12:53 PM 55.0 °F - 33.1 °F 43% 29.59 in 10.0 mi NW 8.1 mph - N/A   Mostly Cloudy
1:53 PM 57.0 °F - 33.1 °F 40% 29.58 in 10.0 mi West 8.1 mph - N/A   Mostly Cloudy
2:53 PM 57.9 °F - 30.9 °F 36% 29.58 in 10.0 mi WNW 6.9 mph - N/A   Clear
3:53 PM 57.0 °F - 28.9 °F 34% 29.59 in 10.0 mi WNW 8.1 mph - N/A   Clear
4:53 PM 52.0 °F - 28.0 °F 40% 29.61 in 10.0 mi WNW 4.6 mph - N/A   Clear
5:53 PM 48.9 °F - 28.0 °F 44% 29.62 in 10.0 mi WNW 5.8 mph - N/A   Clear
6:53 PM 44.1 °F 42.5 °F 28.0 °F 53% 29.64 in 10.0 mi West 3.5 mph - N/A   Clear
7:53 PM 41.0 °F 39.0 °F 28.9 °F 62% 29.65 in 10.0 mi WSW 3.5 mph - N/A   Clear
8:53 PM 44.1 °F 39.0 °F 30.0 °F 58% 29.66 in 10.0 mi West 9.2 mph - N/A   Clear
9:53 PM 43.0 °F 36.8 °F 32.0 °F 65% 29.68 in 10.0 mi NW 11.5 mph 17.3 mph N/A   Clear
10:53 PM 39.9 °F 31.4 °F 32.0 °F 73% 29.70 in 10.0 mi NNW 16.1 mph 23.0 mph N/A   Mostly Cloudy
11:00 PM 39.2 °F 32.0 °F 32.0 °F 75% 29.70 in 10.0 mi NW 11.5 mph 23.0 mph N/A   Mostly Cloudy
11:53 PM 39.0 °F 30.3 °F 32.0 °F 76% 29.71 in 10.0 mi NW 16.1 mph 23.0 mph N/A   Overcast